Location: Ponte Samoggia
(44.5667°N, 11.1333°E)
Time: 23:27:14
(UTC+00:00)

COSMOS 2441 - Pass Details

Date: 26 May 2022
Orbit: 707 x 732 km, 98.1° (Epoch: 26 June)

Event Time Altitude Azimuth Distance (km) Brightness Sun altitude
Rises 02:11:26 0° 11° (N) 3,152 8.8 -12.7°
Reaches altitude 10° 02:13:44 10° 9° (N) 2,222 7.8 -12.4°
Maximum altitude 02:18:36 73° 286° (WNW) 757 4.4 -11.8°
Enters shadow 02:22:50 13° 203° (SSW) 1,972 6.1 -11.3°
